Showing default

MIDAS 7/ERS 10, 622

Orbit data source: Space-Track

MIDAS 7/ERS 10, 622 is a payload satellite owned by USAF SSD (US) in LEO that was launched on Fri, 19 Jul 1963 UTC via an ATLAS AGENA B launch vehicle from the Air Force Western Test Range (AFWTR). Payload-class satellites include a variety of spacecraft equipped with specific instruments for various scientific and technological missions. These include communications satellites like Starlink; space stations such as the ISS; scientific satellites like the Hubble; Earth observation satellites from companies like Planet Labs, Umbra, and HawkEye 360; GPS; miniature CubeSats for education and research; and military/defense satellites.

Loading next visibility...
Identifier
622, 1963-030A
Orbit
LEO
Country
Flag of USUS
Related business
Manufacturer
LMSC
Mission
Spacecraft
Bus & Motor
MIDAS, Unknown motor
Mass
~1,540 kg wet, ~840 kg dry
Launch date (UTC)
1963-07-19 (63 years ago)
Launch vehicle
ATLAS AGENA B
Launch site
Air Force Western Test Range (AFWTR)
Object type
Payload
Rocket body
Debris
Shape & HBR
Unknown
Radar Cross Section
Large (>1 m²)

Expand to show TLE details & history
Last TLE update: 9 hours ago

TLE from 9 hours ago
0 MIDAS 7/ERS 10
1   622U 63030A   26036.48634846 -.00000023  00000-0 -12817-1 0  9999
2   622  88.4297 218.5314 0030691 191.1526 168.8646  8.57932682448485
Epoch: 2026-02-05T11:40Z
TLE epoch observation values (Epoch: 2026-02-05T11:40:20.506Z)
Latitude
-0.00005°
Longitude
-92.19193°
Altitude
3,733.764 km
Speed
6.27 km/s
True Right ascension
14h 34m 07s
True Declination
0° 00' 00"
Sunlit
Object was in daylight at epoch
Visualization orbit readout
Latitude
Unknown
Longitude
Unknown
Altitude
Unknown
Speed
Unknown
Apparent Right ascension
Unknown
Apparent Declination
Unknown
Sunlit
N/A
Visualization observer readout
Local Sidereal Time
22:35:41
Azimuth
Unknown
Elevation
Unknown
Doppler factor
Unknown
Orbital elements
Apogee altitude
3,729.979 km
Perigee altitude
3,668.124 km
Semi-major axis
10,077.188 km
Eccentricity
0.00307
Inclination
88.4297°
RAAN
218.5314°
Arg. of periapsis
191.1526°
True anomaly
168.93227°
Mean anomaly
168.8646°
Eccentric anomaly
168.89846°
Mean motion
2.14553 °/min
Orbital period
167.79 mins
BSTAR
-0.012817
Loading maneuver chart data...
Computing Atmospheric mass density...
Loading historical data...
Loading historical data...
Loading historical data...
Loading historical data...
Loading historical data...
Loading historical data...
Loading historical data...

Documentation

Showing up to 5 results
|